Home > Weather > Irvine > Past weeks

Flag for USA Weather for the Past 2 Weeks in Irvine, California, USA

Now
64 °F

Partly sunny.


Feels Like: 64 °F
Forecast: 55 / 71 °F
Wind: 8 mph from Southwest

Location: John Wayne Airport-Orange County Airport

Current Time: Apr 29, 2016 at 11:48:01 AM

Latest Report: Apr 29, 2016 at 10:53 AM


Visibility: 10 mi

Pressure: 30.03 "Hg

Humidity: 61%

Dew Point: 50 °F

Location of IrvineLocation

Historic Weather in Irvine — Graph

°F

Irvine Temperature Yesterday

Maximum temperature yesterday: 66 °F (at 1:53 PM)
Minimum temperature yesterday: 54 °F (at 3:53 AM)
Average temperature yesterday: 60 °F

High & Low Weather Summary for the Past Weeks

 TemperatureHumidityPressure
High88 °F (Apr 17, 11:53 AM)90% (Apr 22, 2:53 AM)30.06 "Hg (Apr 22, 2:53 AM)
Low52 °F (Apr 26, 4:53 AM)7% (Apr 17, 11:53 AM)29.75 "Hg (Apr 27, 11:53 PM)
Average65 °F53%29.92 "Hg
* Reported Apr 14 10:53 AM — Apr 29 10:53 AM, Irvine, Weather by CustomWeather, © 2016

Note: Actual official high and low records may vary slightly from our data, if they occured in-between our weather recording intervals... More about our weather records

Advertising

Irvine Weather History for the Previous 24 Hours

Scroll right to see more
 ConditionsComfort  
Time TempWeatherWind HumidityBarometerVisibility
10:53 AM
Fri, Apr 29
64 °FPartly sunny.8 mph61%30.03 "Hg10 mi
9:53 AM63 °FBroken clouds.3 mph60%30.03 "Hg10 mi
8:53 AM60 °FPartly sunny.No wind65%30.04 "Hg10 mi
7:53 AM59 °FPartly sunny.6 mph62%30.02 "Hg10 mi
6:53 AM57 °FPassing clouds.5 mph64%30.00 "Hg10 mi
5:53 AM55 °FPassing clouds.5 mph72%29.99 "Hg10 mi
4:53 AM56 °FOvercast.5 mph72%29.98 "Hg10 mi
3:53 AM56 °FOvercast.5 mph72%29.98 "Hg10 mi
2:53 AM56 °FPassing clouds.6 mph75%29.97 "Hg10 mi
1:53 AM56 °FClear.5 mph75%29.97 "Hg10 mi
12:53 AM57 °FClear.6 mph74%29.98 "Hg10 mi
11:53 PM
Thu, Apr 28
57 °FClear.5 mph74%29.96 "Hg10 mi
10:53 PM58 °FPassing clouds.5 mph75%29.96 "Hg10 mi
9:53 PM58 °FPassing clouds.3 mph78%29.95 "Hg8 mi
8:53 PM59 °FClear.No wind75%29.92 "Hg10 mi
7:53 PM59 °FPassing clouds.7 mph75%29.90 "Hg10 mi
6:53 PM61 °FPassing clouds.7 mph62%29.89 "Hg10 mi
5:53 PM63 °FPassing clouds.12 mph54%29.87 "Hg10 mi
4:53 PM64 °FPassing clouds.14 mph54%29.87 "Hg10 mi
3:53 PM65 °FPassing clouds.13 mph54%29.86 "Hg10 mi
2:53 PM65 °FScattered clouds.16 mph52%29.87 "Hg10 mi
1:53 PM66 °FScattered clouds.12 mph47%29.87 "Hg10 mi
12:53 PM65 °FScattered clouds.10 mph52%29.87 "Hg10 mi
11:53 AM65 °FScattered clouds.14 mph52%29.87 "Hg10 mi
Weather by CustomWeather, © 2016

See weather overviewHow to use our weather pages